Regional Weather Roundup
Issued by NWS Northern Indiana

Home | Current Version | Previous Version | Graphics & Text | Print | Product List | Glossary On
Versions: 1 2 3 4 5 6 7 8 9 10 11 12 13 14 15 16 17 18 19 20 21 22 23 24 25 26 27 28 29 30 31 32 33 34 35 36 37 38 39 40 41 42 43 44 45 46 47 48 49 50
000
ASUS43 KIWX 170500
RWRIWX

KIWX WEATHER ROUNDUP
NATIONAL WEATHER SERVICE NORTHERN INDIANA
100 AM EDT THU APR 17 2014

NOTE: "FAIR" INDICATES FEW OR NO CLOUDS BELOW 12,000 FEET WITH NO
SIGNIFICANT WEATHER AND/OR OBSTRUCTIONS TO VISIBILITY.

* THESE STATIONS ARE NOT UNDER NWS QUALITY CONTROL. THEY ALSO MAY NOT
  REPORT WEATHER SUCH AS PRECIPITATION OR FOG.

INZ001>027-170600-
NORTHERN INDIANA

CITY           SKY/WX    TMP DP  RH WIND       PRES   REMARKS
VALPARAISO     PTCLDY    40  24  53 SE12      30.21R
SOUTH BEND     CLEAR     42  24  49 SE18      30.22F
GOSHEN         PTCLDY    40  26  57 SE14      30.24F
ANGOLA*        CLEAR     34  27  75 SE9       30.28S WCI  26
FORT WAYNE     PTCLDY    37  26  64 E12       30.28F
PERU/GRISSOM   CLEAR     38  29  71 SE12      30.22S

$$
INZ028>050-170600-
CENTRAL INDIANA

CITY           SKY/WX    TMP DP  RH WIND       PRES   REMARKS
LAFAYETTE      CLEAR     39  25  57 E8        30.20S
KOKOMO*        CLEAR     37  27  65 SE13      30.22F
MUNCIE*        CLEAR     36  27  69 SE8       30.25F
INDIANAPOLIS   PTCLDY    40  24  53 SE9       30.22S

$$
MIZ043>046-050>051-056>058-064>065-071>073-077>080-170600-
SOUTHWEST LOWER MICHIGAN

CITY           SKY/WX    TMP DP  RH WIND       PRES   REMARKS
BATTLE CREEK   CLOUDY    35  25  66 SE9       30.28S WCI  28
BENTON HARBOR  PTCLDY    41  26  55 SE16G23   30.21S
COLDWATER*     MOCLDY    34  27  76 SE12G17   30.28S WCI  25
HILLSDALE*     PTCLDY    33  29  85 SE12G18   30.29S WCI  25
HOLLAND        CLOUDY    41  27  57 SE16G26   30.24R
GRAND RAPIDS   CLOUDY    38  26  62 SE15      30.27S
KALAMAZOO      CLOUDY    36  26  67 SE9       30.28R
STURGIS*       MOCLDY    36  27  69 SE13      30.26F
THREE RIVERS*  FAIR      37  28  69 SE10      30.28R

$$
OHZ001>008-015>018-024>025-170600-
NORTHWEST OHIO

CITY           SKY/WX    TMP DP  RH WIND       PRES   REMARKS
DEFIANCE       CLEAR     33  27  78 E7        30.33S WCI  27
FINDLAY        PTCLDY    34  28  79 E7        30.32S WCI  28
TOLEDO EXPRESS CLEAR     34  29  82 E8        30.34S WCI  27
TOLEDO METCALF CLEAR     35  29  78 E6        30.36S WCI  30
LIMA           PTCLDY    37  26  64 E8        30.30S

$$
&&



USA.gov is the U.S. government's official web portal to all federal, state and local government web resources and services.